Lid_Strength_Index
2 3 3 4 4 4 5 5 5 6 6 6 6 6 6 5 5 5 5 4 4 4 4 3 4 4 4 8 9 6 4 4 5 6 7 7 8 8 10 9 9 10 9 8 7 8 8
2 3 4 4 4 4 5 5 5 5 6 6 6 6 6 6 5 5 5 4 4 4 3 4 4 4 6 11 7 6 7 6 6 7 7 7 7 7 8 9 10 9 9 9 8 9 9
2 3 3 4 5 5 5 5 5 5 6 6 6 6 6 5 5 5 5 5 4 3 4 4 4 5 8 11 7 6 6 7 6 6 7 6 6 7 8 9 8 9 12 10 10 9 10
1 2 3 4 4 5 5 5 5 5 6 6 6 6 6 5 5 6 5 5 4 4 4 4 4 5 11 7 7 7 6 7 6 5 6 6 6 7 8 8 9 12 12 15 11 10 9
1 2 2 3 4 5 5 5 5 6 6 6 6 6 6 5 6 6 5 5 5 4 4 3 5 7 12 7 9 8 7 8 7 6 6 6 6 8 9 12 14 13 16 14 12 10 10
1 1 2 2 3 4 4 5 5 5 6 6 7 6 6 6 6 6 6 5 4 4 4 5 7 10 10 11 9 8 7 7 8 8 8 8 10 12 12 14 17 16 16 14 15 11 11
0 1 1 2 3 3 4 4 5 5 6 6 7 7 6 6 6 6 6 6 8 9 8 11 11 11 11 9 8 8 7 8 8 10 13 10 14 15 13 12 12 13 14 15 13 10 13
0 1 1 2 3 3 3 4 5 5 5 6 7 7 6 6 7 7 7 9 11 9 13 10 10 10 9 8 12 10 7 11 11 14 11 13 15 11 10 11 13 14 15 15 12 11 12
1 0 1 1 2 3 3 4 4 4 5 6 7 7 6 7 7 8 8 10 8 8 12 12 10 10 10 9 11 11 9 10 12 14 13 15 12 10 11 12 13 14 15 15 14 12 12
1 1 1 1 2 3 3 4 4 4 5 6 7 7 7 8 9 8 10 9 8 8 15 14 13 12 10 9 12 9 8 10 12 14 13 13 11 12 13 14 13 16 11 12 13 15 18
1 1 1 2 2 3 3 3 4 4 5 6 7 7 8 9 9 10 10 8 7 10 20 14 13 9 9 12 11 11 9 10 14 13 13 15 14 15 14 12 11 13 11 12 13 15 16
1 1 2 2 2 3 3 4 4 5 6 7 7 8 8 10 9 10 8 8 9 15 22 17 13 14 13 12 12 11 11 9 10 12 12 13 11 13 12 11 11 10 12 12 13 15 23
2 2 3 3 3 3 3 3 5 6 7 7 7 8 9 11 11 9 8 10 16 20 17 18 16 14 14 15 14 13 13 14 15 18 17 14 14 12 10 13 11 11 14 21 22 23 22
2 2 3 3 4 3 3 3 4 6 6 7 7 9 11 11 10 8 9 14 21 17 19 15 16 15 17 15 15 14 15 16 13 15 17 19 19 14 11 12 14 14 14 20 25 24 19
3 3 3 4 4 4 4 4 5 6 6 7 8 10 11 11 9 9 13 19 18 16 17 17 16 18 17 16 16 15 16 16 14 14 18 18 18 13 12 11 11 14 16 12 19 19 22
3 3 3 4 4 4 4 5 5 6 6 7 11 12 12 10 8 10 15 17 17 16 15 15 17 17 20 19 18 16 16 15 14 13 13 15 18 14 13 12 11 13 11 18 18 26 26
3 3 3 4 4 4 4 5 5 6 6 7 11 14 12 10 10 13 18 16 17 15 14 16 17 19 16 18 16 17 16 15 13 13 12 13 15 17 14 15 15 15 16 14 14 16 23
3 3 3 4 4 4 4 5 5 6 6 9 13 16 12 11 15 16 17 17 14 16 15 16 15 16 16 16 17 16 16 15 12 12 15 13 14 19 16 13 12 14 15 14 20 19 16
3 3 3 4 4 4 4 5 5 6 7 12 14 16 12 12 18 18 17 18 16 16 16 16 17 15 15 17 18 16 16 13 12 13 15 14 18 23 18 16 15 16 15 14 17 17 18
3 3 3 3 4 4 4 5 5 6 7 10 15 19 16 14 15 16 17 18 18 16 15 15 16 15 16 19 17 20 16 15 14 14 11 12 16 20 21 17 16 17 15 15 18 21 18
4 3 3 3 4 4 4 5 5 5 7 10 12 15 16 20 17 17 16 17 18 19 16 15 16 15 16 21 20 21 16 16 15 13 14 15 21 19 17 16 16 16 16 16 17 17 22
3 3 3 3 3 3 4 4 5 5 6 11 15 17 16 16 15 17 16 18 17 17 17 17 17 15 15 18 17 19 18 17 16 16 16 15 20 18 24 17 17 18 17 16 16 16 16
3 2 2 2 3 3 3 3 4 4 6 11 11 12 12 15 16 17 17 16 16 16 16 15 15 15 15 15 15 14 14 14 14 17 18 19 20 23 26 19 20 26 18 16 17 17 18
3 2 2 1 2 2 2 3 3 4 6 9 10 11 13 17 15 16 15 15 15 15 17 16 15 16 15 13 13 14 15 15 16 17 14 20 20 21 26 24 30 17 14 14 15 14 14
5 3 3 2 1 1 2 3 3 4 4 8 9 11 12 16 15 15 15 15 15 15 16 16 15 14 13 14 17 21 21 22 23 17 18 17 19 25 27 28 20 17 15 16 17 17 13
6 5 4 3 3 2 2 2 3 3 4 8 10 8 12 14 15 14 14 14 17 18 18 17 15 13 13 15 19 23 23 24 25 25 17 16 18 23 27 27 29 17 14 13 14 19 13
6 6 6 5 3 2 2 2 3 3 4 7 11 8 12 13 13 13 15 15 13 15 18 19 18 18 15 18 21 22 22 22 24 26 29 27 25 25 24 24 21 14 14 14 21 18 13
4 5 6 6 5 4 3 2 2 2 3 7 11 8 11 13 14 13 13 14 14 14 17 16 17 18 18 20 19 20 21 22 23 20 21 23 26 26 25 26 26 14 15 18 16 13 13
3 3 5 6 6 6 6 4 1 2 3 7 13 8 9 12 14 12 13 13 13 13 14 15 16 16 14 17 18 18 23 24 24 25 16 23 20 20 19 19 14 15 18 16 17 16 14